DateTime,F1_A11,F1_S11,BsB_S11,BsG_S11,BsR_S11,BbsB_S11,BbsG_S11,BbsR_S11,BaB_A11,BaG_A11,BaR_A11,T_S11,U_S11,P_S11,T1_A11
2016-02-07T00:00:00Z,0000380,21000600,,,,,,,,,,24.3,00.0,0622.3,34.3
2016-02-07T00:01:00Z,0000380,21000600,,,,,,,,,,24.3,00.0,0622.3,34.3
2016-02-07T00:02:00Z,0000380,21000600,,,,,,,,,,24.3,00.0,0622.3,34.3
2016-02-07T00:03:00Z,0000380,61000600,,,,,,,,,,24.3,00.0,0622.3,34.3
2016-02-07T00:04:00Z,0000380,41000600,0000.15,0000.49,0000.73,0000.02,0000.15,0000.10,0000.20,0000.32,0000.01,24.5,00.0,0623.0,34.3
2016-02-07T00:05:00Z,0000380,01000600,0002.06,0001.07,0000.85,-000.29,0000.03,-000.22,0000.09,-000.02,0000.11,24.5,00.0,0623.1,34.3
2016-02-07T00:06:00Z,0000380,01000600,0001.16,0000.93,0000.12,-000.20,0000.05,-000.20,0000.10,0000.03,0000.14,24.5,00.0,0623.1,34.3
2016-02-07T00:07:00Z,0000380,01000600,0001.48,0000.47,0000.02,0000.07,-000.08,0000.10,-000.03,0000.11,0000.26,24.5,00.0,0623.1,34.3
2016-02-07T00:08:00Z,0000380,01000600,0000.22,0000.63,0000.28,0000.25,0000.22,-000.49,0000.15,0000.01,-000.25,24.5,00.0,0623.1,34.3
2016-02-07T00:09:00Z,0000380,01000600,0000.71,-000.05,-000.16,0000.12,-000.40,-000.03,0000.11,0000.06,0000.03,24.5,00.0,0623.1,34.3
2016-02-07T00:10:00Z,0000380,01000600,0000.94,0000.64,0000.00,-000.29,0000.13,-000.07,-000.04,-000.02,0000.04,24.5,00.0,0623.1,34.3
2016-02-07T00:11:00Z,0000380,01000600,0000.79,0000.67,0000.18,-000.29,0000.59,-000.19,0000.04,0000.07,0000.11,24.5,00.0,0623.2,34.3
2016-02-07T00:12:00Z,0000380,01000600,0001.56,0000.41,0000.08,-000.22,0000.47,0000.00,0000.15,0000.02,-000.07,24.5,00.0,0623.2,34.3
2016-02-07T00:13:00Z,0000380,01000600,0000.72,0000.19,0000.28,0000.27,0000.00,-000.13,-000.07,0000.09,0000.14,24.5,00.0,0623.2,34.3
2016-02-07T00:14:00Z,0000380,01000600,0001.05,0000.15,0000.09,-000.10,0000.45,-000.12,0000.16,0000.06,0000.00,24.5,00.0,0623.2,34.3
2016-02-07T00:15:00Z,0000380,01000600,0000.16,0000.54,0000.07,0000.12,0000.08,-000.34,-000.01,0000.09,0000.12,24.4,00.0,0623.2,34.3
2016-02-07T00:16:00Z,0000380,01000600,0000.46,0000.86,0000.11,0000.83,0000.27,-000.27,-000.03,-000.01,0000.05,24.4,00.0,0623.2,34.3
2016-02-07T00:17:00Z,0000380,01000600,0000.86,0000.24,-000.07,-000.37,-000.34,-000.39,0000.08,-000.01,-000.01,24.4,00.0,0623.2,34.3
2016-02-07T00:18:00Z,0000380,01000600,0001.20,0000.18,-000.12,-000.20,0000.35,-000.20,0000.03,0000.14,0000.05,24.4,00.0,0623.2,34.3
2016-02-07T00:19:00Z,0000380,01000600,0000.10,0000.18,0000.01,0000.37,0000.34,0000.02,0000.14,0000.02,-000.05,24.4,00.0,0623.2,34.3
2016-02-07T00:20:00Z,0000380,01000600,0000.26,0000.45,0000.11,-000.24,0000.10,-000.25,0000.12,0000.16,-000.14,24.4,00.0,0623.2,34.3
2016-02-07T00:21:00Z,0000380,01000600,0000.90,0000.28,0000.03,-000.56,-000.13,-000.39,0000.13,0000.02,0000.39,24.4,00.0,0623.2,34.3
2016-02-07T00:22:00Z,0000380,01000600,0000.70,0000.33,0000.11,-000.51,0000.32,-000.15,-000.07,0000.07,0000.23,24.3,00.0,0623.2,34.3
2016-02-07T00:23:00Z,0000380,01000600,0000.38,0000.24,-000.01,-000.32,0000.18,-000.22,0000.20,0000.09,-000.30,24.3,00.0,0623.2,34.3
2016-02-07T00:24:00Z,0000380,01000600,0000.04,0000.34,-000.21,0000.03,-000.22,-000.24,-000.07,-000.05,0000.08,24.3,00.0,0623.1,34.3
2016-02-07T00:25:00Z,0000380,01000600,0001.42,0000.42,0000.22,-000.15,0000.18,-000.13,0000.13,0000.08,0000.16,24.3,00.0,0623.2,34.3
2016-02-07T00:26:00Z,0000380,01000600,0001.13,0000.09,0000.50,-000.30,-000.13,-000.20,-000.04,0000.04,0000.05,24.3,00.0,0623.1,34.3
2016-02-07T00:27:00Z,0000380,01000600,0000.58,0000.27,0000.30,0000.05,0000.12,-000.10,0000.03,-000.14,-000.19,24.3,00.0,0623.1,34.3
2016-02-07T00:28:00Z,0000380,01000600,0000.26,0000.29,-000.22,-000.05,-000.35,-000.32,0000.07,0000.18,0000.18,24.3,00.0,0623.1,34.3
2016-02-07T00:29:00Z,0000380,01000600,-000.37,0000.88,-000.07,-000.44,0000.10,0000.03,0000.24,-000.04,0000.14,24.3,00.0,0623.1,34.3
2016-02-07T00:30:00Z,0000380,01000600,0000.86,0000.67,0000.45,0000.00,0000.22,-000.22,-000.13,0000.16,-000.08,24.3,00.0,0623.1,34.2
2016-02-07T00:31:00Z,0000380,01000600,0001.02,0000.34,0000.57,0000.20,0000.60,0000.20,0000.04,-000.02,-000.18,24.3,00.0,0623.1,34.2
2016-02-07T00:32:00Z,0000380,01000600,0000.02,0000.46,0000.64,-000.15,0000.52,0000.08,0000.09,0000.12,0000.32,24.3,00.0,0623.1,34.2
2016-02-07T00:33:00Z,0000380,01000600,-000.17,0000.08,0000.42,0000.00,0000.07,-000.07,-000.04,-000.02,-000.00,24.3,00.0,0623.1,34.2
2016-02-07T00:34:00Z,0000380,01000600,0000.55,0000.06,-000.23,0000.02,0000.10,-000.19,0000.16,-000.02,-000.05,24.3,00.0,0623.2,34.2
2016-02-07T00:35:00Z,0000380,01000600,0000.93,0000.12,-000.18,-000.29,0000.60,-000.15,0000.08,0000.19,0000.07,24.3,00.0,0623.2,34.2
2016-02-07T00:36:00Z,0000380,01000600,0000.06,0000.49,-000.07,0000.51,-000.29,-000.13,0000.06,0000.05,0000.10,24.3,00.0,0623.2,34.2
2016-02-07T00:37:00Z,0000380,01000600,0000.86,0000.28,0000.08,-000.07,-000.27,-000.34,-000.05,-000.03,-000.02,24.3,00.0,0623.2,34.2
2016-02-07T00:38:00Z,0000380,01000600,0000.31,0000.32,0000.00,0000.03,-000.07,-000.29,0000.07,0000.05,-000.08,24.3,00.0,0623.3,34.2
2016-02-07T00:39:00Z,0000380,01000600,-000.44,0000.55,0000.00,0000.07,0000.27,-000.34,0000.07,-000.04,0000.11,24.3,00.0,0623.2,34.2
2016-02-07T00:40:00Z,0000380,01000600,0001.38,0000.31,0000.10,-000.35,0000.13,-000.29,0000.05,0000.07,-000.25,24.3,00.0,0623.3,34.2
2016-02-07T00:41:00Z,0000380,01000600,0000.08,0000.00,0000.08,-000.34,-000.07,-000.30,-000.03,-000.01,0000.27,24.3,00.0,0623.3,34.2
2016-02-07T00:42:00Z,0000380,01000600,0000.29,0000.48,0000.08,-000.44,0000.20,-000.13,0000.20,0000.16,0000.15,24.2,00.0,0623.3,34.2
2016-02-07T00:43:00Z,0000380,01000600,0000.82,0000.61,0000.40,-000.10,0000.44,0000.07,-000.07,0000.05,-000.17,24.2,00.0,0623.3,34.2
2016-02-07T00:44:00Z,0000380,01000600,0000.36,0000.64,0000.03,0000.00,0000.08,0000.10,-000.05,-000.15,0000.39,24.2,00.0,0623.3,34.2
2016-02-07T00:45:00Z,0000380,01000600,0000.71,0000.20,0000.19,-000.32,-000.37,0000.05,0000.33,0000.20,-000.10,24.2,00.0,0623.3,34.2
2016-02-07T00:46:00Z,0000380,01000600,-000.09,0000.52,0000.27,-000.24,0000.03,-000.02,0000.00,0000.08,0000.09,24.2,00.0,0623.3,34.2
2016-02-07T00:47:00Z,0000380,01000600,0001.45,0000.54,0000.72,0000.71,0000.07,-000.35,0000.05,0000.07,-000.03,24.3,00.0,0623.3,34.2
2016-02-07T00:48:00Z,0000380,01000600,0001.08,0000.17,0000.39,0000.20,-000.12,-000.29,-000.04,-000.14,0000.19,24.2,00.0,0623.3,34.2
2016-02-07T00:49:00Z,0000380,01000600,0001.40,0000.36,0000.11,-000.17,-000.44,-000.22,0000.09,0000.41,-000.14,24.3,00.0,0623.3,34.2
2016-02-07T00:50:00Z,0000380,01000600,0001.12,0000.39,0000.06,0000.61,-000.15,-000.51,0000.19,0000.03,0000.23,24.3,00.0,0623.3,34.2
2016-02-07T00:51:00Z,0000380,01000600,0000.79,0000.33,0000.20,-000.02,0000.34,-000.37,-000.11,-000.05,-000.09,24.2,00.0,0623.3,34.2
2016-02-07T00:52:00Z,0000380,01000600,0000.27,0000.46,0000.03,-000.08,0000.22,0000.03,0000.07,0000.14,-000.03,24.2,00.0,0623.3,34.2
2016-02-07T00:53:00Z,0000380,01000600,0000.02,0000.19,0000.02,-000.66,0000.17,-000.19,-000.02,-000.05,0000.32,24.2,00.0,0623.3,34.2
2016-02-07T00:54:00Z,0000380,01000600,0000.25,0000.32,0000.35,-000.05,-000.07,0000.34,0000.09,0000.06,-000.21,24.2,00.0,0623.2,34.2
2016-02-07T00:55:00Z,0000380,01000600,0000.18,-000.08,0000.13,-000.30,0000.34,0000.20,0000.10,0000.02,0000.24,24.2,00.0,0623.3,34.2
2016-02-07T00:56:00Z,0000380,01000600,0000.47,0000.39,0000.41,-000.10,0000.12,-000.24,0000.11,0000.13,-000.11,24.2,00.0,0623.2,34.2
2016-02-07T00:57:00Z,0000380,41000600,,,,,,,,,,,,0623.2,34.2
2016-02-07T00:58:00Z,0000380,61000600,,,,,,,,,,24.0,00.0,0622.5,34.2
2016-02-07T00:59:00Z,0000380,21000600,,,,,,,,,,24.0,00.0,0622.5,34.2
2016-02-07T01:00:00Z,0000380,21000600,,,,,,,,,,24.0,00.0,0622.5,34.2
2016-02-07T01:01:00Z,0000380,21000600,,,,,,,,,,24.0,00.0,0622.5,34.2
2016-02-07T01:02:00Z,0000380,21000600,,,,,,,,,,24.0,00.0,0622.5,34.2
2016-02-07T01:03:00Z,0000380,61000600,,,,,,,,,,24.0,00.0,0622.5,34.2
2016-02-07T01:04:00Z,0000380,41000600,0000.77,0000.45,0000.10,0000.29,0000.65,-000.02,0000.11,0000.23,0000.16,24.1,00.0,0623.2,34.2
2016-02-07T01:05:00Z,0000380,01000600,0000.68,-000.75,0000.63,0000.24,-000.07,0000.08,0000.14,-000.12,-000.16,24.1,00.0,0623.2,34.2
2016-02-07T01:06:00Z,0000380,01000600,0000.00,0000.34,0001.20,-000.45,-000.03,-000.05,-000.00,0000.20,0000.11,24.1,00.0,0623.2,34.2
2016-02-07T01:07:00Z,0000380,01000600,0000.95,-000.53,0000.42,0000.00,-000.02,-000.05,0000.03,-000.03,0000.15,24.2,00.0,0623.2,34.2
2016-02-07T01:08:00Z,0000380,01000600,0000.43,-000.10,0000.21,0000.29,0000.18,0000.22,0000.07,0000.05,0000.13,24.2,00.0,0623.2,34.2
2016-02-07T01:09:00Z,0000380,01000600,0000.90,-000.12,0000.44,0000.39,-000.07,0000.24,0000.16,0000.06,-000.10,24.2,00.0,0623.2,34.2
2016-02-07T01:10:00Z,0000380,01000600,0000.61,-000.12,0000.34,0000.62,0000.08,0000.07,-000.13,-000.01,0000.10,24.2,00.0,0623.3,34.2
2016-02-07T01:11:00Z,0000380,01000600,0001.31,-000.25,0000.66,-000.30,0000.00,0000.24,0000.19,-000.04,0000.14,24.2,00.0,0623.3,34.2
2016-02-07T01:12:00Z,0000380,01000600,0000.49,0000.71,0000.40,-000.34,0000.45,0000.12,0000.02,0000.25,-000.05,24.2,00.0,0623.3,34.2
2016-02-07T01:13:00Z,0000380,01000600,0001.48,0000.09,0000.37,0000.39,0000.39,0000.34,0000.06,-000.11,-000.10,24.2,00.0,0623.3,34.2
2016-02-07T01:14:00Z,0000380,01000600,0001.02,0000.27,0000.24,0000.29,0000.13,0000.07,-000.02,0000.06,0000.23,24.3,00.0,0623.3,34.2
2016-02-07T01:15:00Z,0000380,01000600,0000.02,-000.35,0000.37,-000.52,0000.39,0000.20,0000.07,0000.05,-000.07,24.3,00.0,0623.3,34.3
2016-02-07T01:16:00Z,0000380,01000600,0000.68,0000.91,0000.84,0000.34,-000.03,0000.25,-000.09,0000.09,-000.20,24.3,00.0,0623.3,34.3
2016-02-07T01:17:00Z,0000380,01000600,0000.60,0000.41,0000.12,0000.64,0000.54,0000.20,0000.29,0000.12,0000.31,24.3,00.0,0623.3,34.3
2016-02-07T01:18:00Z,0000380,01000600,0000.79,-000.30,0000.56,0000.29,0000.27,0000.35,-000.05,-000.11,0000.07,24.3,00.0,0623.4,34.3
2016-02-07T01:19:00Z,0000380,01000600,0000.26,0000.10,0000.64,0000.10,0000.54,0000.00,0000.01,0000.28,-000.05,24.3,00.0,0623.4,34.3
2016-02-07T01:20:00Z,0000380,01000600,0000.61,0000.60,-000.04,0000.30,0000.17,-000.25,0000.03,-000.13,-000.04,24.3,00.0,0623.4,34.3
2016-02-07T01:21:00Z,0000380,01000600,0000.63,-000.39,-000.07,0000.13,-000.15,-000.02,0000.15,0000.08,0000.10,24.3,00.0,0623.4,34.3
2016-02-07T01:22:00Z,0000380,01000600,0000.72,0000.64,0000.79,0000.03,0000.22,0000.07,0000.09,0000.11,0000.23,24.4,00.0,0623.4,34.3
2016-02-07T01:23:00Z,0000380,01000600,0000.33,-000.43,0000.27,-000.03,-000.40,0000.25,0000.11,-000.01,-000.21,24.4,00.0,0623.4,34.3
2016-02-07T01:24:00Z,0000380,01000600,0000.97,0000.17,0000.92,-000.59,0000.25,0000.15,0000.10,0000.13,0000.29,24.5,00.0,0623.4,34.3
2016-02-07T01:25:00Z,0000380,01000600,0000.10,-000.15,0000.93,-000.15,0000.02,0000.00,-000.09,0000.06,-000.21,24.5,00.0,0623.4,34.3
2016-02-07T01:26:00Z,0000380,01000600,0001.58,-000.13,0000.37,-000.22,0000.12,0000.00,0000.15,0000.07,0000.42,24.5,00.0,0623.4,34.3
2016-02-07T01:27:00Z,0000380,01000600,0000.32,0000.20,0000.33,0000.35,0000.32,0000.22,-000.12,-000.06,-000.16,24.5,00.0,0623.4,34.3
2016-02-07T01:28:00Z,0000380,01000600,0000.35,0000.53,0000.41,0000.42,0000.23,0000.20,0000.31,0000.11,0000.11,24.5,00.0,0623.4,34.3
2016-02-07T01:29:00Z,0000380,01000600,0000.73,-000.09,0000.73,-000.22,0000.47,-000.05,-000.10,0000.09,-000.20,24.5,00.0,0623.4,34.3
2016-02-07T01:30:00Z,0000380,01000600,0001.05,0000.19,0000.75,0000.56,-000.35,0000.39,-000.02,0000.08,0000.31,24.5,00.0,0623.4,34.4
2016-02-07T01:31:00Z,0000380,01000600,0000.73,0000.15,0000.11,-000.29,0000.22,0000.12,0000.16,-000.00,-000.15,24.5,00.0,0623.5,34.4
2016-02-07T01:32:00Z,0000380,01000600,0000.57,0000.11,-000.02,-000.22,0000.62,-000.12,0000.04,-000.16,0000.01,24.6,00.0,0623.5,34.4
2016-02-07T01:33:00Z,0000380,01000600,0000.40,0000.31,0000.40,0000.12,0000.30,0000.49,-000.02,0000.17,0000.19,24.6,00.0,0623.5,34.4
2016-02-07T01:34:00Z,0000380,01000600,-000.05,0000.20,0000.02,0000.13,0000.02,-000.32,-000.05,0000.19,0000.10,24.6,00.0,0623.5,34.4
2016-02-07T01:35:00Z,0000380,01000600,0000.86,0000.14,0000.04,0000.37,0000.15,0000.03,0000.08,-000.02,0000.06,24.7,00.0,0623.6,34.4
2016-02-07T01:36:00Z,0000380,01000600,0000.35,0000.04,0000.58,0000.10,-000.08,-000.15,0000.29,0000.10,0000.02,24.7,00.0,0623.6,34.4
2016-02-07T01:37:00Z,0000380,01000600,0000.51,0000.27,0000.67,0000.47,0000.17,0000.07,0000.00,0000.04,-000.18,24.7,00.0,0623.6,34.4
2016-02-07T01:38:00Z,0000380,01000600,0000.27,0000.96,-000.11,-000.71,-000.18,0000.20,0000.08,-000.01,0000.12,24.7,00.0,0623.6,34.4
2016-02-07T01:39:00Z,0000380,01000600,0000.39,-000.06,0000.44,-000.81,0000.42,0000.20,-000.03,0000.08,0000.12,24.8,00.0,0623.7,34.4
2016-02-07T01:40:00Z,0000380,01000600,0000.67,-000.26,0001.02,-000.20,-000.18,0000.34,-000.01,0000.02,-000.06,24.8,00.0,0623.7,34.4
2016-02-07T01:41:00Z,0000380,01000600,0000.70,0000.79,0000.14,-000.64,0000.39,-000.07,0000.21,0000.05,0000.12,24.8,00.0,0623.7,34.4
2016-02-07T01:42:00Z,0000380,01000600,-000.10,-000.10,0000.04,-000.05,-000.05,0000.15,0000.09,0000.18,0000.02,24.8,00.0,0623.7,34.4
2016-02-07T01:43:00Z,0000380,01000600,0000.26,0000.63,0000.29,0000.17,0000.64,0000.35,0000.03,-000.03,0000.06,24.8,00.0,0623.7,34.4
2016-02-07T01:44:00Z,0000380,01000600,0001.00,0000.06,0000.16,0000.22,0000.44,-000.03,-000.03,-000.02,-000.02,24.8,00.0,0623.7,34.4
2016-02-07T01:45:00Z,0000380,01000600,0001.40,0000.44,0000.43,0000.08,0000.15,-000.08,-000.05,0000.12,-000.09,24.8,00.0,0623.7,34.4
2016-02-07T01:46:00Z,0000380,01000600,0001.56,0000.23,0001.31,-000.13,0000.57,0000.22,0000.24,0000.02,0000.22,24.8,00.0,0623.8,34.4
2016-02-07T01:47:00Z,0000380,01000600,0000.67,0000.25,0000.30,0000.39,-000.20,0000.34,0000.01,0000.17,0000.03,24.9,00.0,0623.8,34.4
2016-02-07T01:48:00Z,0000380,01000600,0001.41,0000.50,0000.37,-000.29,0000.34,0000.12,0000.00,0000.01,0000.12,24.9,00.0,0623.8,34.4
2016-02-07T01:49:00Z,0000380,01000600,0001.10,-000.35,0000.57,0000.35,0000.15,-000.07,0000.05,0000.10,0000.11,24.9,00.0,0623.8,34.4
2016-02-07T01:50:00Z,0000380,01000600,0001.15,0000.35,0000.85,0000.37,0000.07,0000.25,0000.07,0000.02,-000.03,24.9,00.0,0623.8,34.4
2016-02-07T01:51:00Z,0000380,01000600,0000.43,-000.19,0000.73,0000.67,0000.25,0000.05,0000.10,0000.00,-000.02,24.9,00.0,0623.8,34.4
2016-02-07T01:52:00Z,0000380,01000600,0000.65,0000.00,0000.78,0000.54,0000.17,-000.02,-000.02,0000.13,0000.03,24.9,00.0,0623.9,34.4
2016-02-07T01:53:00Z,0000380,01000600,0000.79,0000.65,0000.37,0000.30,0000.02,0000.29,-000.00,-000.07,-000.15,24.9,00.0,0623.9,34.4
2016-02-07T01:54:00Z,0000380,01000600,0000.93,0000.15,0000.32,0000.15,0000.23,-000.10,0000.15,0000.23,0000.08,24.9,00.0,0623.9,34.4
2016-02-07T01:55:00Z,0000380,01000600,0000.69,0000.71,0000.51,-000.08,0000.17,-000.05,-000.19,0000.04,0000.20,24.9,00.0,0623.9,34.4
2016-02-07T01:56:00Z,0000380,01000600,0001.01,-000.16,0000.24,0000.10,0000.18,0000.10,0000.25,-000.02,0000.07,24.9,00.0,0623.9,34.4
2016-02-07T01:57:00Z,0000380,41000600,,,,,,,,,,,,0623.9,34.4
2016-02-07T01:58:00Z,0000380,61000600,,,,,,,,,,24.8,00.0,0623.1,34.4
2016-02-07T01:59:00Z,0000380,21000600,,,,,,,,,,24.8,00.0,0623.1,34.4
2016-02-07T02:00:00Z,0000380,21000600,,,,,,,,,,24.8,00.0,0623.1,34.3
2016-02-07T02:01:00Z,0000380,21000600,,,,,,,,,,24.8,00.0,0623.1,34.3
2016-02-07T02:02:00Z,0000380,21000600,,,,,,,,,,24.8,00.0,0623.1,34.3
2016-02-07T02:03:00Z,0000380,61000600,,,,,,,,,,24.8,00.0,0623.1,34.3
2016-02-07T02:04:00Z,0000380,41000600,0000.41,0000.37,-000.10,0000.10,0000.10,0000.19,0000.06,-000.05,-000.06,24.9,00.0,0623.8,34.3
2016-02-07T02:05:00Z,0000380,01000600,0000.11,-000.63,0000.38,-000.34,0000.12,0000.25,0000.01,0000.12,0000.08,24.8,00.0,0623.9,34.3
2016-02-07T02:06:00Z,0000380,01000600,0001.54,-000.34,0000.26,0000.32,0000.39,0000.07,0000.04,-000.06,-000.08,24.8,00.0,0623.9,34.3
2016-02-07T02:07:00Z,0000380,01000600,0000.11,0000.09,0000.54,0000.10,0000.25,0000.20,0000.04,0000.17,-000.03,24.8,00.0,0623.9,34.3
2016-02-07T02:08:00Z,0000380,01000600,0000.35,0000.34,0000.37,0000.19,0000.37,0000.22,0000.19,0000.02,0000.18,24.9,00.0,0623.9,34.3
2016-02-07T02:09:00Z,0000380,01000600,0000.56,0000.43,0000.21,-000.10,0000.40,0000.07,-000.14,0000.09,0000.14,24.9,00.0,0623.9,34.3
2016-02-07T02:10:00Z,0000380,01000600,0000.81,0000.15,0000.14,0000.66,-000.13,0000.19,0000.14,0000.09,-000.16,24.9,00.0,0623.9,34.3
2016-02-07T02:11:00Z,0000380,01000600,0000.77,-000.07,0000.15,-000.35,0000.05,0000.20,-000.08,0000.11,0000.14,24.9,00.0,0623.8,34.3
2016-02-07T02:12:00Z,0000380,01000600,0001.19,-000.57,0000.30,-000.39,0000.50,0000.03,0000.07,-000.00,-000.15,24.9,00.0,0623.8,34.3
2016-02-07T02:13:00Z,0000380,01000600,0000.73,-000.14,0000.12,-000.57,0000.34,0000.02,0000.16,-000.04,0000.39,24.9,00.0,0623.8,34.3
2016-02-07T02:14:00Z,0000380,01000600,0000.87,0000.24,0000.44,-000.25,0000.25,0000.30,0000.11,0000.06,-000.37,24.9,00.0,0623.8,34.3
2016-02-07T02:15:00Z,0000380,01000600,0000.66,0000.37,-000.06,-000.37,0000.54,0000.25,0000.10,0000.30,0000.11,24.9,00.0,0623.9,34.3
2016-02-07T02:16:00Z,0000380,01000600,0000.31,-000.02,0000.07,-000.22,0000.39,0000.02,0000.11,-000.09,0000.34,24.9,00.0,0623.8,34.3
2016-02-07T02:17:00Z,0000380,01000600,0000.44,0000.14,0000.23,-000.03,-000.18,0000.03,-000.08,0000.03,-000.03,24.9,00.0,0623.8,34.3
2016-02-07T02:18:00Z,0000380,01000600,0000.75,0000.12,0000.12,-000.22,0000.44,0000.10,-000.06,0000.11,0000.03,24.9,00.0,0623.8,34.3
2016-02-07T02:19:00Z,0000380,01000600,0000.70,0000.31,0000.26,-000.19,0000.13,-000.07,0000.07,0000.05,-000.05,24.9,00.0,0623.8,34.3
2016-02-07T02:20:00Z,0000380,01000600,0000.19,0000.31,0000.04,0000.10,0000.40,-000.08,0000.08,0000.05,0000.11,24.9,00.0,0623.8,34.3
2016-02-07T02:21:00Z,0000380,01000600,0000.60,0000.16,0000.31,-000.29,0000.05,0000.22,0000.19,0000.15,0000.27,24.9,00.0,0623.7,34.3
2016-02-07T02:22:00Z,0000380,01000600,0000.93,0000.84,0000.91,-000.71,-000.02,0000.35,0000.02,-000.05,-000.17,24.9,00.0,0623.7,34.3
2016-02-07T02:23:00Z,0000380,01000600,0000.63,0000.06,0000.69,-000.15,0000.13,0000.08,0000.06,0000.10,-000.00,24.8,00.0,0623.7,34.3
2016-02-07T02:24:00Z,0000380,01000600,-000.62,0000.30,0000.04,-000.56,0000.20,0000.14,0000.15,0000.04,0000.08,24.9,00.0,0623.7,34.3
2016-02-07T02:25:00Z,0000380,01000600,0001.08,-000.78,0000.82,0000.19,0000.39,0000.35,-000.11,-000.11,-000.02,24.9,00.0,0623.7,34.3
2016-02-07T02:26:00Z,0000380,01000600,0000.19,0000.06,-000.41,0000.10,0000.34,-000.12,0000.30,0000.20,0000.26,24.9,00.0,0623.7,34.3
2016-02-07T02:27:00Z,0000380,01000600,0000.91,-000.56,0000.28,0000.37,0000.62,-000.10,-000.09,0000.10,-000.13,24.9,00.0,0623.6,34.3
2016-02-07T02:28:00Z,0000380,01000600,0000.17,0000.26,0000.06,0000.20,-000.10,-000.05,0000.13,0000.10,0000.05,24.9,00.0,0623.6,34.3
2016-02-07T02:29:00Z,0000380,01000600,0000.68,0000.26,-000.25,0000.32,0000.05,0000.02,-000.06,0000.03,-000.23,24.9,00.0,0623.6,34.3
2016-02-07T02:30:00Z,0000380,01000600,0000.99,0000.52,-000.19,-000.07,0000.20,-000.30,0000.02,-000.01,0000.30,24.9,00.0,0623.6,34.3
2016-02-07T02:31:00Z,0000380,01000600,0000.44,0000.21,0000.27,0000.20,0000.22,0000.02,0000.08,-000.04,0000.19,24.8,00.0,0623.6,34.3
2016-02-07T02:32:00Z,0000380,01000600,0000.63,-000.07,0000.09,-000.47,0000.34,-000.12,0000.12,0000.15,-000.22,24.9,00.0,0623.7,34.3
2016-02-07T02:33:00Z,0000380,01000600,0000.25,-000.28,0000.54,-000.54,0000.13,-000.10,0000.04,0000.05,-000.05,24.8,00.0,0623.6,34.3
2016-02-07T02:34:00Z,0000380,01000600,0000.66,0000.74,0000.02,0000.30,0000.17,-000.08,-000.06,-000.09,0000.26,24.8,00.0,0623.7,34.3
2016-02-07T02:35:00Z,0000380,01000600,0001.02,0000.18,-000.05,0000.29,0000.20,0000.19,0000.31,0000.08,-000.20,24.8,00.0,0623.6,34.3
2016-02-07T02:36:00Z,0000380,01000600,-000.09,0000.27,-000.09,0000.37,0000.52,-000.22,-000.00,0000.18,0000.24,24.8,00.0,0623.6,34.3
2016-02-07T02:37:00Z,0000380,01000600,0000.87,-000.02,-000.02,-000.05,0000.18,0000.19,-000.13,0000.05,0000.09,24.8,00.0,0623.6,34.3
2016-02-07T02:38:00Z,0000380,01000600,0000.84,-000.11,0000.05,-000.39,0000.22,-000.19,0000.21,-000.01,-000.21,24.8,00.0,0623.7,34.3
2016-02-07T02:39:00Z,0000380,01000600,0000.65,0000.42,0000.15,-000.13,0000.40,-000.22,-000.04,0000.09,0000.28,24.8,00.0,0623.7,34.3
2016-02-07T02:40:00Z,0000380,01000600,-000.16,0000.09,0000.00,0000.20,0000.32,-000.08,0000.17,0000.13,-000.19,24.8,00.0,0623.7,34.3
2016-02-07T02:41:00Z,0000380,01000600,0000.48,0000.14,0000.30,0000.05,0000.54,-000.17,-000.02,-000.07,-000.00,24.8,00.0,0623.7,34.3
2016-02-07T02:42:00Z,0000380,01000600,0000.76,0000.16,0000.15,0000.08,0000.34,0000.30,0000.05,0000.09,0000.05,24.8,00.0,0623.7,34.3
2016-02-07T02:43:00Z,0000380,01000600,0000.27,0000.61,0000.22,0000.05,0000.32,-000.08,0000.07,0000.14,0000.14,24.8,00.0,0623.7,34.3
2016-02-07T02:44:00Z,0000380,01000600,0000.79,0000.20,-000.08,0000.76,0000.23,-000.10,-000.04,-000.00,0000.35,24.8,00.0,0623.8,34.3
2016-02-07T02:45:00Z,0000380,01000600,0000.50,-000.16,-000.12,0000.03,0000.29,-000.02,0000.17,0000.13,-000.13,24.7,00.0,0623.8,34.3
2016-02-07T02:46:00Z,0000380,01000600,0000.23,-000.08,-000.10,-000.13,0000.39,0000.13,0000.01,-000.09,-000.10,24.7,00.0,0623.7,34.3
2016-02-07T02:47:00Z,0000380,01000600,0000.63,0000.21,0000.43,-000.29,-000.32,-000.02,-000.09,0000.06,-000.05,24.7,00.0,0623.7,34.3
2016-02-07T02:48:00Z,0000380,01000600,0000.47,0000.51,0000.09,-000.25,-000.08,-000.24,0000.23,-000.02,-000.00,24.7,00.0,0623.7,34.3
2016-02-07T02:49:00Z,0000380,01000600,0001.16,0000.19,0000.51,0000.86,0000.59,0000.10,-000.13,0000.20,0000.25,24.7,00.0,0623.7,34.3
2016-02-07T02:50:00Z,0000380,01000600,0000.03,0000.11,0000.10,0000.07,0000.30,0000.17,0000.07,-000.15,-000.02,24.7,00.0,0623.7,34.3
2016-02-07T02:51:00Z,0000380,01000600,0000.35,0000.51,-000.08,0000.20,-000.40,0000.15,0000.21,0000.14,0000.20,24.7,00.0,0623.7,34.3
2016-02-07T02:52:00Z,0000380,01000600,0001.05,0000.34,0000.49,-000.25,0000.13,0000.03,-000.11,0000.04,-000.05,24.7,00.0,0623.7,34.3
2016-02-07T02:53:00Z,0000380,01000600,0000.99,0000.37,0000.17,0000.12,0000.32,-000.08,0000.11,0000.16,-000.07,24.6,00.0,0623.7,34.3
2016-02-07T02:54:00Z,0000380,01000600,-000.66,0000.33,0000.36,0000.47,-000.02,-000.12,-000.04,-000.04,0000.07,24.6,00.0,0623.7,34.3
2016-02-07T02:55:00Z,0000380,01000600,0000.52,0000.59,0000.15,0000.27,0000.34,0000.00,0000.16,0000.08,0000.04,24.6,00.0,0623.7,34.3
2016-02-07T02:56:00Z,0000380,01000600,0001.27,0000.02,0000.09,0000.22,0000.03,0000.15,0000.04,-000.01,0000.13,24.6,00.0,0623.7,34.3
2016-02-07T02:57:00Z,0000380,41000600,,,,,,,,,,,,0623.7,34.3
2016-02-07T02:58:00Z,0000380,61000600,,,,,,,,,,24.5,00.0,0622.9,34.3
2016-02-07T02:59:00Z,0000380,21000600,,,,,,,,,,24.5,00.0,0622.8,34.3
2016-02-07T03:00:00Z,0000380,21000600,,,,,,,,,,24.5,00.0,0622.8,34.3
2016-02-07T03:01:00Z,0000380,21000600,,,,,,,,,,24.5,00.0,0622.8,34.3
2016-02-07T03:02:00Z,0000380,21000600,,,,,,,,,,24.5,00.0,0622.8,34.3
2016-02-07T03:03:00Z,0000380,61000600,,,,,,,,,,24.5,00.0,0622.8,34.3
2016-02-07T03:04:00Z,0000380,41000600,-000.06,-000.29,0000.15,-000.12,-000.12,-000.20,0000.13,0000.14,0000.13,24.5,00.0,0623.5,34.3
2016-02-07T03:05:00Z,0000380,01000600,0000.73,0000.23,0000.36,-000.34,0000.20,-000.05,0000.10,0000.09,0000.26,24.5,00.0,0623.6,34.3
2016-02-07T03:06:00Z,0000380,01000600,-000.89,-000.15,-000.06,0000.05,-000.08,0000.05,-000.11,-000.12,-000.12,24.5,00.0,0623.5,34.3
2016-02-07T03:07:00Z,0000380,01000600,-000.25,0000.59,-000.21,0000.42,0000.74,0000.02,0000.03,-000.00,-000.00,24.5,00.0,0623.5,34.3
2016-02-07T03:08:00Z,0000380,01000600,0000.76,0000.06,0000.03,-000.44,0000.40,-000.22,0000.07,0000.31,-000.16,24.5,00.0,0623.5,34.3
2016-02-07T03:09:00Z,0000380,01000600,0000.93,0000.49,-000.21,0000.13,0000.50,-000.17,0000.25,0000.06,0000.44,24.5,00.0,0623.5,34.3
2016-02-07T03:10:00Z,0000380,01000600,0000.80,0000.25,-000.09,0000.54,0000.32,-000.05,0000.05,-000.01,-000.36,24.4,00.0,0623.5,34.3
2016-02-07T03:11:00Z,0000380,01000600,0000.14,0000.41,0000.09,-000.03,0000.25,-000.10,-000.07,-000.02,0000.12,24.5,00.0,0623.4,34.3
2016-02-07T03:12:00Z,0000380,01000600,0002.04,0000.35,-000.37,0000.27,0000.13,-000.24,0000.11,0000.14,0000.24,24.4,00.0,0623.5,34.3